STARLINK-33649 (63416 NORAD) Tracking and Keplerian Element Data

This shows tracking and keplerian element data for the satellite.

Feedback or suggestion? Click here.




ElementValue
Catalog63416
NameSTARLINK-33649
Epoch Orbit4065
Epoch Day353.99397687
Epoch Year2025
RAAN196.913
Inclination42.9943
Eccentricity7.4E-06
Argument of Perigee153.8625
Mean Anonmoly206.2231
Mean Motion15.27595924
Decay Rate0.00013557
L11 63416U 25065T 25353.99397687 .00013557 00000+0 50099-3 0 9990
L22 63416 42.9943 196.9130 0000074 153.8625 206.2231 15.27595924 40653



Live tracking and technical data element details for STARLINK-33649 (NORAD 63416). STARLINK-33649 can be tracked NOW for your location showing map with azimuth and elevation plus other details from your city location.







IsCatalogInMostPopularTable: catalog: 63416, numindb: 2
Update: records affected: 1



GetName: 63416 STARLINK-33649

Hit Count: updated at: Wed, 11 Feb 2026 15:25:33 GMT